contact:dominique.lefevre@mio.osupytheas.fr, maurice.libes@osupytheas.fr, didier.mallarino@osupytheas.fr
Project:EMSO http://www.emso-fr.org/EMSO-France
Depth: 2436.0 m
Title:EMSO Ligure Ouest : Data MII capteur MICROCAT
DateTime_Computer,Latitude,Longitude,Temperature,Conductivity,Pressure,DateTime_Instrument
DateTime_Computer,Latitude,Longitude,degC,S m-1,dbar,DateTime_Instrument
2019-05-24T00:02:56Z,42.805,6.029,13.2952,4.59954,2469.643,2019-5-24T02:03:11Z
2019-05-24T00:05:59Z,42.805,6.029,13.2953,4.59955,2469.657,2019-5-24T02:06:14Z
2019-05-24T00:09:02Z,42.805,6.029,13.2952,4.59954,2469.69,2019-5-24T02:09:17Z
2019-05-24T00:12:05Z,42.805,6.029,13.2954,4.59955,2469.68,2019-5-24T02:12:20Z
2019-05-24T00:15:08Z,42.805,6.029,13.2950,4.59956,2469.704,2019-5-24T02:15:23Z
2019-05-24T00:18:11Z,42.805,6.029,13.2952,4.59956,2469.69,2019-5-24T02:18:26Z
2019-05-24T00:21:14Z,42.805,6.029,13.2951,4.59956,2469.643,2019-5-24T02:21:29Z
2019-05-24T00:24:17Z,42.805,6.029,13.2952,4.59957,2469.704,2019-5-24T02:24:31Z
2019-05-24T00:27:20Z,42.805,6.029,13.2956,4.59956,2469.667,2019-5-24T02:27:34Z
2019-05-24T00:30:23Z,42.805,6.029,13.2953,4.59956,2469.643,2019-5-24T02:30:37Z
2019-05-24T00:33:26Z,42.805,6.029,13.2950,4.59955,2469.667,2019-5-24T02:33:40Z
2019-05-24T00:36:29Z,42.805,6.029,13.2952,4.59957,2469.69,2019-5-24T02:36:43Z
2019-05-24T00:39:32Z,42.805,6.029,13.2957,4.59956,2469.657,2019-5-24T02:39:46Z
2019-05-24T00:42:35Z,42.805,6.029,13.2954,4.59956,2469.68,2019-5-24T02:42:49Z
2019-05-24T00:45:38Z,42.805,6.029,13.2951,4.59955,2469.68,2019-5-24T02:45:52Z
2019-05-24T00:48:41Z,42.805,6.029,13.2951,4.59953,2469.643,2019-5-24T02:48:55Z
2019-05-24T00:51:44Z,42.805,6.029,13.2952,4.59953,2469.643,2019-5-24T02:51:58Z
2019-05-24T00:54:47Z,42.805,6.029,13.2952,4.59952,2469.667,2019-5-24T02:55:01Z
2019-05-24T00:57:49Z,42.805,6.029,13.2949,4.59956,2469.62,2019-5-24T02:58:04Z
2019-05-24T01:00:52Z,42.805,6.029,13.2957,4.59956,2469.68,2019-5-24T03:01:07Z
2019-05-24T01:03:55Z,42.805,6.029,13.2950,4.59958,2469.667,2019-5-24T03:04:10Z
2019-05-24T01:06:58Z,42.805,6.029,13.2949,4.59956,2469.643,2019-5-24T03:07:13Z
2019-05-24T01:10:01Z,42.805,6.029,13.2948,4.59954,2469.667,2019-5-24T03:10:16Z
2019-05-24T01:13:04Z,42.805,6.029,13.2952,4.59952,2469.68,2019-5-24T03:13:19Z
2019-05-24T01:16:07Z,42.805,6.029,13.2948,4.59954,2469.657,2019-5-24T03:16:22Z
2019-05-24T01:19:10Z,42.805,6.029,13.2951,4.59957,2469.69,2019-5-24T03:19:25Z
2019-05-24T01:22:13Z,42.805,6.029,13.2951,4.59955,2469.657,2019-5-24T03:22:27Z
2019-05-24T01:25:16Z,42.805,6.029,13.2951,4.59957,2469.657,2019-5-24T03:25:30Z
2019-05-24T01:28:19Z,42.805,6.029,13.2950,4.59957,2469.657,2019-5-24T03:28:33Z
2019-05-24T01:31:22Z,42.805,6.029,13.2953,4.59952,2469.643,2019-5-24T03:31:36Z
2019-05-24T01:34:25Z,42.805,6.029,13.2949,4.59958,2469.62,2019-5-24T03:34:39Z
2019-05-24T01:37:28Z,42.805,6.029,13.2953,4.59958,2469.643,2019-5-24T03:37:42Z
2019-05-24T01:40:31Z,42.805,6.029,13.2952,4.59956,2469.657,2019-5-24T03:40:45Z
2019-05-24T01:43:34Z,42.805,6.029,13.2954,4.59958,2469.643,2019-5-24T03:43:48Z
2019-05-24T01:46:37Z,42.805,6.029,13.2951,4.59955,2469.634,2019-5-24T03:46:51Z
2019-05-24T01:49:40Z,42.805,6.029,13.2953,4.59955,2469.657,2019-5-24T03:49:54Z
2019-05-24T01:52:43Z,42.805,6.029,13.2952,4.59954,2469.657,2019-5-24T03:52:57Z
2019-05-24T01:55:45Z,42.805,6.029,13.2951,4.59953,2469.657,2019-5-24T03:56:00Z
2019-05-24T01:58:48Z,42.805,6.029,13.2952,4.59954,2469.643,2019-5-24T03:59:03Z
2019-05-24T02:01:51Z,42.805,6.029,13.2953,4.59953,2469.634,2019-5-24T04:02:06Z
2019-05-24T02:04:54Z,42.805,6.029,13.2949,4.59951,2469.657,2019-5-24T04:05:09Z
2019-05-24T02:07:57Z,42.805,6.029,13.2953,4.59953,2469.634,2019-5-24T04:08:12Z
2019-05-24T02:11:00Z,42.805,6.029,13.2949,4.59950,2469.667,2019-5-24T04:11:15Z
2019-05-24T02:14:03Z,42.805,6.029,13.2953,4.59951,2469.62,2019-5-24T04:14:18Z
2019-05-24T02:17:06Z,42.805,6.029,13.2952,4.59951,2469.634,2019-5-24T04:17:21Z
2019-05-24T02:20:09Z,42.805,6.029,13.2951,4.59956,2469.657,2019-5-24T04:20:24Z
2019-05-24T02:23:12Z,42.805,6.029,13.2952,4.59951,2469.634,2019-5-24T04:23:26Z
2019-05-24T02:26:15Z,42.805,6.029,13.2954,4.59951,2469.62,2019-5-24T04:26:29Z
2019-05-24T02:29:18Z,42.805,6.029,13.2952,4.59949,2469.634,2019-5-24T04:29:32Z
2019-05-24T02:32:21Z,42.805,6.029,13.2952,4.59951,2469.657,2019-5-24T04:32:35Z
2019-05-24T02:35:24Z,42.805,6.029,13.2952,4.59950,2469.61,2019-5-24T04:35:38Z
2019-05-24T02:38:27Z,42.805,6.029,13.2950,4.59951,2469.597,2019-5-24T04:38:41Z
2019-05-24T02:41:30Z,42.805,6.029,13.2949,4.59951,2469.597,2019-5-24T04:41:44Z
2019-05-24T02:44:33Z,42.805,6.029,13.2951,4.59951,2469.61,2019-5-24T04:44:47Z
2019-05-24T02:47:36Z,42.805,6.029,13.2953,4.59952,2469.597,2019-5-24T04:47:50Z
2019-05-24T02:50:39Z,42.805,6.029,13.2953,4.59951,2469.643,2019-5-24T04:50:53Z
2019-05-24T02:53:42Z,42.805,6.029,13.2951,4.59950,2469.643,2019-5-24T04:53:56Z
2019-05-24T02:56:44Z,42.805,6.029,13.2951,4.59950,2469.634,2019-5-24T04:56:59Z
2019-05-24T02:59:47Z,42.805,6.029,13.2952,4.59949,2469.634,2019-5-24T05:00:02Z
2019-05-24T03:02:50Z,42.805,6.029,13.2953,4.59951,2469.597,2019-5-24T05:03:05Z
2019-05-24T03:05:53Z,42.805,6.029,13.2955,4.59951,2469.583,2019-5-24T05:06:08Z
2019-05-24T03:08:56Z,42.805,6.029,13.2952,4.59950,2469.597,2019-5-24T05:09:11Z
2019-05-24T03:11:59Z,42.805,6.029,13.2951,4.59951,2469.62,2019-5-24T05:12:14Z
2019-05-24T03:15:02Z,42.805,6.029,13.2953,4.59951,2469.61,2019-5-24T05:15:17Z
2019-05-24T03:18:05Z,42.805,6.029,13.2953,4.59951,2469.597,2019-5-24T05:18:20Z
2019-05-24T03:21:08Z,42.805,6.029,13.2951,4.59954,2469.61,2019-5-24T05:21:22Z
2019-05-24T03:24:11Z,42.805,6.029,13.2953,4.59951,2469.573,2019-5-24T05:24:25Z
2019-05-24T03:27:14Z,42.805,6.029,13.2949,4.59952,2469.573,2019-5-24T05:27:28Z
2019-05-24T03:30:17Z,42.805,6.029,13.2953,4.59951,2469.573,2019-5-24T05:30:31Z
2019-05-24T03:33:20Z,42.805,6.029,13.2951,4.59951,2469.573,2019-5-24T05:33:34Z
2019-05-24T03:36:23Z,42.805,6.029,13.2951,4.59951,2469.587,2019-5-24T05:36:37Z
2019-05-24T03:39:26Z,42.805,6.029,13.2952,4.59949,2469.61,2019-5-24T05:39:40Z
2019-05-24T03:42:29Z,42.805,6.029,13.2952,4.59950,2469.61,2019-5-24T05:42:43Z
2019-05-24T03:45:32Z,42.805,6.029,13.2949,4.59953,2469.587,2019-5-24T05:45:46Z
2019-05-24T03:48:35Z,42.805,6.029,13.2952,4.59951,2469.61,2019-5-24T05:48:49Z
2019-05-24T03:51:38Z,42.805,6.029,13.2953,4.59949,2469.587,2019-5-24T05:51:52Z
2019-05-24T03:54:40Z,42.805,6.029,13.2950,4.59948,2469.61,2019-5-24T05:54:55Z
2019-05-24T03:57:43Z,42.805,6.029,13.2950,4.59954,2469.587,2019-5-24T05:57:58Z
2019-05-24T04:00:46Z,42.805,6.029,13.2952,4.59951,2469.597,2019-5-24T06:01:01Z
2019-05-24T04:03:49Z,42.805,6.029,13.2952,4.59949,2469.573,2019-5-24T06:04:04Z
2019-05-24T04:06:52Z,42.805,6.029,13.2949,4.59951,2469.55,2019-5-24T06:07:07Z
2019-05-24T04:09:55Z,42.805,6.029,13.2951,4.59953,2469.573,2019-5-24T06:10:10Z
2019-05-24T04:12:58Z,42.805,6.029,13.2953,4.59953,2469.55,2019-5-24T06:13:13Z
2019-05-24T04:16:01Z,42.805,6.029,13.2951,4.59951,2469.55,2019-5-24T06:16:16Z
2019-05-24T04:19:04Z,42.805,6.029,13.2952,4.59955,2469.61,2019-5-24T06:19:18Z
2019-05-24T04:22:07Z,42.805,6.029,13.2952,4.59950,2469.573,2019-5-24T06:22:21Z
2019-05-24T04:25:10Z,42.805,6.029,13.2948,4.59950,2469.55,2019-5-24T06:25:24Z
2019-05-24T04:28:13Z,42.805,6.029,13.2959,4.59948,2469.587,2019-5-24T06:28:27Z
2019-05-24T04:31:16Z,42.805,6.029,13.2947,4.59949,2469.587,2019-5-24T06:31:30Z
2019-05-24T04:34:19Z,42.805,6.029,13.2951,4.59949,2469.55,2019-5-24T06:34:33Z
2019-05-24T04:37:22Z,42.805,6.029,13.2952,4.59949,2469.587,2019-5-24T06:37:36Z
2019-05-24T04:40:25Z,42.805,6.029,13.2953,4.59951,2469.573,2019-5-24T06:40:39Z
2019-05-24T04:43:28Z,42.805,6.029,13.2953,4.59951,2469.563,2019-5-24T06:43:42Z
2019-05-24T04:46:31Z,42.805,6.029,13.2948,4.59951,2469.54,2019-5-24T06:46:45Z
2019-05-24T04:49:34Z,42.805,6.029,13.2951,4.59948,2469.55,2019-5-24T06:49:48Z
2019-05-24T04:52:37Z,42.805,6.029,13.2952,4.59951,2469.55,2019-5-24T06:52:51Z
2019-05-24T04:55:39Z,42.805,6.029,13.2948,4.59952,2469.573,2019-5-24T06:55:54Z
2019-05-24T04:58:42Z,42.805,6.029,13.2952,4.59954,2469.54,2019-5-24T06:58:57Z
2019-05-24T05:01:45Z,42.805,6.029,13.2952,4.59949,2469.54,2019-5-24T07:02:00Z
2019-05-24T05:04:48Z,42.805,6.029,13.2953,4.59950,2469.55,2019-5-24T07:05:03Z
2019-05-24T05:07:51Z,42.805,6.029,13.2953,4.59951,2469.55,2019-5-24T07:08:06Z
2019-05-24T05:10:54Z,42.805,6.029,13.2951,4.59949,2469.526,2019-5-24T07:11:09Z
2019-05-24T05:13:57Z,42.805,6.029,13.2955,4.59951,2469.563,2019-5-24T07:14:12Z
2019-05-24T05:17:00Z,42.805,6.029,13.2952,4.59949,2469.54,2019-5-24T07:17:15Z
2019-05-24T05:20:03Z,42.805,6.029,13.2953,4.59950,2469.54,2019-5-24T07:20:17Z
2019-05-24T05:23:06Z,42.805,6.029,13.2952,4.59950,2469.573,2019-5-24T07:23:20Z
2019-05-24T05:26:09Z,42.805,6.029,13.2953,4.59956,2469.55,2019-5-24T07:26:23Z
2019-05-24T05:29:12Z,42.805,6.029,13.2954,4.59950,2469.55,2019-5-24T07:29:26Z
2019-05-24T05:32:15Z,42.805,6.029,13.2948,4.59950,2469.55,2019-5-24T07:32:29Z
2019-05-24T05:35:18Z,42.805,6.029,13.2951,4.59952,2469.54,2019-5-24T07:35:32Z
2019-05-24T05:38:21Z,42.805,6.029,13.2950,4.59950,2469.573,2019-5-24T07:38:35Z
2019-05-24T05:41:24Z,42.805,6.029,13.2954,4.59948,2469.563,2019-5-24T07:41:38Z
2019-05-24T05:44:27Z,42.805,6.029,13.2947,4.59949,2469.55,2019-5-24T07:44:41Z
2019-05-24T05:47:30Z,42.805,6.029,13.2953,4.59951,2469.54,2019-5-24T07:47:44Z
2019-05-24T05:50:33Z,42.805,6.029,13.2954,4.59951,2469.563,2019-5-24T07:50:47Z
2019-05-24T05:53:35Z,42.805,6.029,13.2954,4.59951,2469.563,2019-5-24T07:53:50Z
2019-05-24T05:56:38Z,42.805,6.029,13.2950,4.59954,2469.54,2019-5-24T07:56:53Z
2019-05-24T05:59:41Z,42.805,6.029,13.2952,4.59954,2469.55,2019-5-24T07:59:56Z
2019-05-24T06:02:44Z,42.805,6.029,13.2952,4.59951,2469.536,2019-5-24T08:02:59Z
2019-05-24T06:05:47Z,42.805,6.029,13.2951,4.59950,2469.563,2019-5-24T08:06:02Z
2019-05-24T06:08:50Z,42.805,6.029,13.2952,4.59950,2469.526,2019-5-24T08:09:05Z
2019-05-24T06:11:53Z,42.805,6.029,13.2954,4.59950,2469.526,2019-5-24T08:12:08Z
2019-05-24T06:14:56Z,42.805,6.029,13.2954,4.59951,2469.54,2019-5-24T08:15:11Z
2019-05-24T06:17:59Z,42.805,6.029,13.2952,4.59948,2469.526,2019-5-24T08:18:13Z
2019-05-24T06:21:02Z,42.805,6.029,13.2952,4.59949,2469.526,2019-5-24T08:21:16Z
2019-05-24T06:24:05Z,42.805,6.029,13.2950,4.59951,2469.54,2019-5-24T08:24:19Z
2019-05-24T06:27:08Z,42.805,6.029,13.2952,4.59951,2469.563,2019-5-24T08:27:22Z
2019-05-24T06:30:11Z,42.805,6.029,13.2946,4.59952,2469.526,2019-5-24T08:30:25Z
2019-05-24T06:33:14Z,42.805,6.029,13.2954,4.59951,2469.55,2019-5-24T08:33:28Z
2019-05-24T06:36:17Z,42.805,6.029,13.2953,4.59951,2469.55,2019-5-24T08:36:31Z
2019-05-24T06:39:20Z,42.805,6.029,13.2952,4.59952,2469.573,2019-5-24T08:39:34Z
2019-05-24T06:42:23Z,42.805,6.029,13.2949,4.59952,2469.526,2019-5-24T08:42:37Z
2019-05-24T06:45:26Z,42.805,6.029,13.2948,4.59952,2469.55,2019-5-24T08:45:40Z
2019-05-24T06:48:29Z,42.805,6.029,13.2953,4.59952,2469.54,2019-5-24T08:48:43Z
2019-05-24T06:51:31Z,42.805,6.029,13.2949,4.59968,2469.55,2019-5-24T08:51:46Z
2019-05-24T06:54:34Z,42.805,6.029,13.2952,4.59961,2469.54,2019-5-24T08:54:49Z
2019-05-24T06:57:37Z,42.805,6.029,13.2951,4.59956,2469.563,2019-5-24T08:57:52Z
2019-05-24T07:00:40Z,42.805,6.029,13.2952,4.59958,2469.54,2019-5-24T09:00:55Z
2019-05-24T07:03:43Z,42.805,6.029,13.2955,4.59951,2469.55,2019-5-24T09:03:58Z
2019-05-24T07:06:46Z,42.805,6.029,13.2951,4.59954,2469.587,2019-5-24T09:07:01Z
2019-05-24T07:09:49Z,42.805,6.029,13.2953,4.59952,2469.563,2019-5-24T09:10:04Z
2019-05-24T07:12:52Z,42.805,6.029,13.2953,4.59951,2469.55,2019-5-24T09:13:07Z
2019-05-24T07:15:55Z,42.805,6.029,13.2954,4.59951,2469.55,2019-5-24T09:16:10Z
2019-05-24T07:18:58Z,42.805,6.029,13.2953,4.59956,2469.587,2019-5-24T09:19:12Z
2019-05-24T07:22:01Z,42.805,6.029,13.2952,4.59952,2469.587,2019-5-24T09:22:15Z
2019-05-24T07:25:04Z,42.805,6.029,13.2954,4.59954,2469.55,2019-5-24T09:25:18Z
2019-05-24T07:28:07Z,42.805,6.029,13.2953,4.59952,2469.573,2019-5-24T09:28:21Z
2019-05-24T07:31:10Z,42.805,6.029,13.2953,4.59953,2469.563,2019-5-24T09:31:24Z
2019-05-24T07:34:13Z,42.805,6.029,13.2953,4.59953,2469.563,2019-5-24T09:34:27Z
2019-05-24T07:37:16Z,42.805,6.029,13.2955,4.59956,2469.54,2019-5-24T09:37:30Z
2019-05-24T07:40:19Z,42.805,6.029,13.2953,4.59960,2469.563,2019-5-24T09:40:33Z
2019-05-24T07:43:22Z,42.805,6.029,13.2952,4.59954,2469.55,2019-5-24T09:43:36Z
2019-05-24T07:46:25Z,42.805,6.029,13.2952,4.59953,2469.587,2019-5-24T09:46:39Z
2019-05-24T07:49:28Z,42.805,6.029,13.2956,4.59956,2469.573,2019-5-24T09:49:42Z
2019-05-24T07:52:30Z,42.805,6.029,13.2958,4.59954,2469.54,2019-5-24T09:52:45Z
2019-05-24T07:55:33Z,42.805,6.029,13.2955,4.59955,2469.573,2019-5-24T09:55:48Z
2019-05-24T07:58:36Z,42.805,6.029,13.2953,4.59952,2469.587,2019-5-24T09:58:51Z
2019-05-24T08:01:39Z,42.805,6.029,13.2952,4.59955,2469.55,2019-5-24T10:01:54Z
2019-05-24T08:04:42Z,42.805,6.029,13.2950,4.59954,2469.573,2019-5-24T10:04:57Z
2019-05-24T08:07:45Z,42.805,6.029,13.2952,4.59954,2469.563,2019-5-24T10:08:00Z
2019-05-24T08:10:48Z,42.805,6.029,13.2952,4.59953,2469.587,2019-5-24T10:11:03Z
2019-05-24T08:13:51Z,42.805,6.029,13.2953,4.59963,2469.587,2019-5-24T10:14:06Z
2019-05-24T08:16:54Z,42.805,6.029,13.2950,4.59954,2469.573,2019-5-24T10:17:08Z
2019-05-24T08:19:57Z,42.805,6.029,13.2952,4.59964,2469.597,2019-5-24T10:20:11Z
2019-05-24T08:23:00Z,42.805,6.029,13.2957,4.59961,2469.563,2019-5-24T10:23:14Z
2019-05-24T08:26:03Z,42.805,6.029,13.2952,4.59968,2469.587,2019-5-24T10:26:17Z
2019-05-24T08:29:06Z,42.805,6.029,13.2954,4.59960,2469.587,2019-5-24T10:29:20Z
2019-05-24T08:32:09Z,42.805,6.029,13.2968,4.59956,2469.55,2019-5-24T10:32:23Z
2019-05-24T08:35:12Z,42.805,6.029,13.2957,4.59961,2469.597,2019-5-24T10:35:26Z
2019-05-24T08:38:15Z,42.805,6.029,13.2955,4.59957,2469.587,2019-5-24T10:38:29Z
2019-05-24T08:41:18Z,42.805,6.029,13.2954,4.59957,2469.563,2019-5-24T10:41:32Z
2019-05-24T08:44:21Z,42.805,6.029,13.2953,4.59956,2469.597,2019-5-24T10:44:35Z
2019-05-24T08:47:24Z,42.805,6.029,13.2952,4.59962,2469.597,2019-5-24T10:47:38Z
2019-05-24T08:50:27Z,42.805,6.029,13.2954,4.59961,2469.597,2019-5-24T10:50:41Z
2019-05-24T08:53:30Z,42.805,6.029,13.2951,4.59959,2469.61,2019-5-24T10:53:44Z
2019-05-24T08:56:32Z,42.805,6.029,13.2955,4.59964,2469.597,2019-5-24T10:56:47Z
2019-05-24T08:59:35Z,42.805,6.029,13.2952,4.59961,2469.587,2019-5-24T10:59:50Z
2019-05-24T09:02:38Z,42.805,6.029,13.2954,4.59958,2469.62,2019-5-24T11:02:53Z
2019-05-24T09:05:41Z,42.805,6.029,13.2952,4.59975,2469.597,2019-5-24T11:05:56Z
2019-05-24T09:08:44Z,42.805,6.029,13.2946,4.59990,2469.573,2019-5-24T11:08:59Z
2019-05-24T09:11:47Z,42.805,6.029,13.2957,4.60012,2469.634,2019-5-24T11:12:02Z
2019-05-24T09:14:50Z,42.805,6.029,13.2952,4.59975,2469.573,2019-5-24T11:15:05Z
2019-05-24T09:17:53Z,42.805,6.029,13.2954,4.59961,2469.61,2019-5-24T11:18:08Z
2019-05-24T09:20:56Z,42.805,6.029,13.2961,4.59997,2469.62,2019-5-24T11:21:11Z
2019-05-24T09:23:59Z,42.805,6.029,13.2950,4.59979,2469.597,2019-5-24T11:24:13Z
2019-05-24T09:27:02Z,42.805,6.029,13.2953,4.59962,2469.61,2019-5-24T11:27:16Z
2019-05-24T09:30:05Z,42.805,6.029,13.2956,4.59956,2469.634,2019-5-24T11:30:19Z
2019-05-24T09:33:08Z,42.805,6.029,13.2948,4.59976,2469.61,2019-5-24T11:33:22Z
2019-05-24T09:36:11Z,42.805,6.029,13.2956,4.59982,2469.61,2019-5-24T11:36:25Z
2019-05-24T09:39:14Z,42.805,6.029,13.2952,4.59966,2469.62,2019-5-24T11:39:28Z
2019-05-24T09:42:17Z,42.805,6.029,13.2952,4.59957,2469.61,2019-5-24T11:42:31Z
2019-05-24T09:45:20Z,42.805,6.029,13.2953,4.59966,2469.61,2019-5-24T11:45:34Z
2019-05-24T09:48:23Z,42.805,6.029,13.2948,4.59963,2469.587,2019-5-24T11:48:37Z
2019-05-24T09:51:26Z,42.805,6.029,13.2952,4.59966,2469.597,2019-5-24T11:51:40Z
2019-05-24T09:54:29Z,42.805,6.029,13.2950,4.59964,2469.597,2019-5-24T11:54:43Z
2019-05-24T09:57:32Z,42.805,6.029,13.2952,4.60006,2469.62,2019-5-24T11:57:46Z
2019-05-24T10:00:34Z,42.805,6.029,13.3011,4.60025,2469.597,2019-5-24T12:00:49Z
2019-05-24T10:03:37Z,42.805,6.029,13.2957,4.59972,2469.61,2019-5-24T12:03:52Z
2019-05-24T10:06:40Z,42.805,6.029,13.2953,4.59978,2469.62,2019-5-24T12:06:55Z
2019-05-24T10:09:43Z,42.805,6.029,13.2950,4.59966,2469.61,2019-5-24T12:09:58Z
2019-05-24T10:12:46Z,42.805,6.029,13.2952,4.59961,2469.61,2019-5-24T12:13:01Z
2019-05-24T10:15:49Z,42.805,6.029,13.2957,4.59968,2469.61,2019-5-24T12:16:04Z
2019-05-24T10:18:52Z,42.805,6.029,13.3019,4.59968,2469.61,2019-5-24T12:19:07Z
2019-05-24T10:21:55Z,42.805,6.029,13.2976,4.60006,2469.61,2019-5-24T12:22:10Z
2019-05-24T10:24:58Z,42.805,6.029,13.2960,4.59981,2469.61,2019-5-24T12:25:13Z
2019-05-24T10:28:01Z,42.805,6.029,13.3016,4.59978,2469.634,2019-5-24T12:28:16Z
2019-05-24T10:31:04Z,42.805,6.029,13.2996,4.59968,2469.61,2019-5-24T12:31:18Z
2019-05-24T10:34:07Z,42.805,6.029,13.3011,4.59972,2469.587,2019-5-24T12:34:21Z
2019-05-24T10:37:10Z,42.805,6.029,13.2997,4.59973,2469.597,2019-5-24T12:37:24Z
2019-05-24T10:40:13Z,42.805,6.029,13.3005,4.59980,2469.597,2019-5-24T12:40:27Z
2019-05-24T10:43:16Z,42.805,6.029,13.3011,4.59981,2469.61,2019-5-24T12:43:30Z
2019-05-24T10:46:19Z,42.805,6.029,13.3013,4.59983,2469.61,2019-5-24T12:46:33Z
2019-05-24T10:49:22Z,42.805,6.029,13.3021,4.59983,2469.587,2019-5-24T12:49:36Z
2019-05-24T10:52:25Z,42.805,6.029,13.3022,4.59995,2469.61,2019-5-24T12:52:39Z
2019-05-24T10:55:28Z,42.805,6.029,13.2987,4.60002,2469.61,2019-5-24T12:55:42Z
2019-05-24T10:58:31Z,42.805,6.029,13.2991,4.59996,2469.61,2019-5-24T12:58:45Z
2019-05-24T11:01:34Z,42.805,6.029,13.2991,4.59984,2469.61,2019-5-24T13:01:48Z
2019-05-24T11:04:37Z,42.805,6.029,13.2993,4.59980,2469.587,2019-5-24T13:04:51Z
2019-05-24T11:07:39Z,42.805,6.029,13.3014,4.59973,2469.573,2019-5-24T13:07:54Z
2019-05-24T11:10:42Z,42.805,6.029,13.3035,4.59973,2469.61,2019-5-24T13:10:57Z
2019-05-24T11:13:45Z,42.805,6.029,13.2998,4.59993,2469.597,2019-5-24T13:14:00Z
2019-05-24T11:16:48Z,42.805,6.029,13.2968,4.60027,2469.587,2019-5-24T13:17:03Z
2019-05-24T11:19:51Z,42.805,6.029,13.2962,4.60034,2469.587,2019-5-24T13:20:06Z
2019-05-24T11:22:54Z,42.805,6.029,13.2979,4.60016,2469.61,2019-5-24T13:23:09Z
2019-05-24T11:25:57Z,42.805,6.029,13.2983,4.59999,2469.55,2019-5-24T13:26:12Z
2019-05-24T11:29:00Z,42.805,6.029,13.2998,4.60014,2469.587,2019-5-24T13:29:15Z
2019-05-24T11:32:03Z,42.805,6.029,13.3026,4.60048,2469.587,2019-5-24T13:32:18Z
2019-05-24T11:35:06Z,42.805,6.029,13.3024,4.60042,2469.587,2019-5-24T13:35:21Z
2019-05-24T11:38:09Z,42.805,6.029,13.3034,4.60011,2469.587,2019-5-24T13:38:23Z
2019-05-24T11:41:12Z,42.805,6.029,13.3021,4.60036,2469.587,2019-5-24T13:41:26Z
2019-05-24T11:44:15Z,42.805,6.029,13.3026,4.60032,2469.563,2019-5-24T13:44:29Z
2019-05-24T11:47:18Z,42.805,6.029,13.3034,4.60015,2469.587,2019-5-24T13:47:32Z
2019-05-24T11:50:21Z,42.805,6.029,13.3029,4.60006,2469.597,2019-5-24T13:50:35Z
2019-05-24T11:53:24Z,42.805,6.029,13.2985,4.60001,2469.587,2019-5-24T13:53:38Z
2019-05-24T11:56:27Z,42.805,6.029,13.2961,4.60016,2469.563,2019-5-24T13:56:41Z
2019-05-24T11:59:30Z,42.805,6.029,13.2954,4.60067,2469.563,2019-5-24T13:59:44Z
2019-05-24T12:02:33Z,42.805,6.029,13.2953,4.60047,2469.587,2019-5-24T14:02:47Z
2019-05-24T12:05:36Z,42.805,6.029,13.2953,4.59994,2469.55,2019-5-24T14:05:50Z
2019-05-24T12:08:39Z,42.805,6.029,13.2952,4.59981,2469.587,2019-5-24T14:08:53Z
2019-05-24T12:11:41Z,42.805,6.029,13.2951,4.59978,2469.587,2019-5-24T14:11:56Z
2019-05-24T12:14:44Z,42.805,6.029,13.2946,4.59975,2469.55,2019-5-24T14:14:59Z
2019-05-24T12:17:47Z,42.805,6.029,13.2952,4.59975,2469.563,2019-5-24T14:18:02Z
2019-05-24T12:20:50Z,42.805,6.029,13.2953,4.59973,2469.55,2019-5-24T14:21:05Z
2019-05-24T12:23:53Z,42.805,6.029,13.2951,4.59973,2469.573,2019-5-24T14:24:08Z
2019-05-24T12:26:56Z,42.805,6.029,13.2949,4.59981,2469.55,2019-5-24T14:27:11Z
2019-05-24T12:29:59Z,42.805,6.029,13.2950,4.59974,2469.573,2019-5-24T14:30:14Z
2019-05-24T12:33:02Z,42.805,6.029,13.2948,4.59971,2469.55,2019-5-24T14:33:17Z
2019-05-24T12:36:05Z,42.805,6.029,13.2952,4.59970,2469.587,2019-5-24T14:36:20Z
2019-05-24T12:39:08Z,42.805,6.029,13.2952,4.59973,2469.597,2019-5-24T14:39:23Z
2019-05-24T12:42:11Z,42.805,6.029,13.2955,4.59978,2469.573,2019-5-24T14:42:25Z
2019-05-24T12:45:14Z,42.805,6.029,13.2957,4.59976,2469.587,2019-5-24T14:45:28Z
2019-05-24T12:48:17Z,42.805,6.029,13.2953,4.59978,2469.55,2019-5-24T14:48:31Z
2019-05-24T12:51:20Z,42.805,6.029,13.2952,4.59975,2469.526,2019-5-24T14:51:34Z
2019-05-24T12:54:23Z,42.805,6.029,13.2953,4.59970,2469.573,2019-5-24T14:54:37Z
2019-05-24T12:57:26Z,42.805,6.029,13.2952,4.59981,2469.54,2019-5-24T14:57:40Z
2019-05-24T13:00:29Z,42.805,6.029,13.2952,4.59983,2469.55,2019-5-24T15:00:43Z
2019-05-24T13:03:32Z,42.805,6.029,13.2947,4.59973,2469.587,2019-5-24T15:03:46Z
2019-05-24T13:06:35Z,42.805,6.029,13.2948,4.59969,2469.55,2019-5-24T15:06:49Z
2019-05-24T13:09:38Z,42.805,6.029,13.2950,4.59972,2469.587,2019-5-24T15:09:52Z
2019-05-24T13:12:41Z,42.805,6.029,13.2952,4.59970,2469.563,2019-5-24T15:12:55Z
2019-05-24T13:15:43Z,42.805,6.029,13.2954,4.59972,2469.526,2019-5-24T15:15:58Z
2019-05-24T13:18:46Z,42.805,6.029,13.2952,4.59980,2469.54,2019-5-24T15:19:01Z
2019-05-24T13:21:49Z,42.805,6.029,13.2952,4.59968,2469.54,2019-5-24T15:22:04Z
2019-05-24T13:24:52Z,42.805,6.029,13.2953,4.59970,2469.573,2019-5-24T15:25:07Z
2019-05-24T13:27:55Z,42.805,6.029,13.2953,4.59965,2469.573,2019-5-24T15:28:10Z
2019-05-24T13:30:58Z,42.805,6.029,13.2951,4.59966,2469.61,2019-5-24T15:31:13Z
2019-05-24T13:34:01Z,42.805,6.029,13.2954,4.59959,2469.55,2019-5-24T15:34:16Z
2019-05-24T13:37:04Z,42.805,6.029,13.2951,4.59959,2469.517,2019-5-24T15:37:19Z
2019-05-24T13:40:07Z,42.805,6.029,13.2955,4.59962,2469.597,2019-5-24T15:40:22Z
2019-05-24T13:43:10Z,42.805,6.029,13.2948,4.59969,2469.563,2019-5-24T15:43:25Z
2019-05-24T13:46:13Z,42.805,6.029,13.2951,4.59973,2469.573,2019-5-24T15:46:27Z
2019-05-24T13:49:16Z,42.805,6.029,13.2956,4.59968,2469.55,2019-5-24T15:49:30Z
2019-05-24T13:52:19Z,42.805,6.029,13.2948,4.59960,2469.563,2019-5-24T15:52:33Z
2019-05-24T13:55:22Z,42.805,6.029,13.2952,4.59958,2469.55,2019-5-24T15:55:36Z
2019-05-24T13:58:25Z,42.805,6.029,13.2951,4.59960,2469.526,2019-5-24T15:58:39Z
2019-05-24T14:01:28Z,42.805,6.029,13.2952,4.59956,2469.55,2019-5-24T16:01:42Z
2019-05-24T14:04:31Z,42.805,6.029,13.2950,4.59958,2469.55,2019-5-24T16:04:45Z
2019-05-24T14:07:34Z,42.805,6.029,13.2953,4.59963,2469.526,2019-5-24T16:07:48Z
2019-05-24T14:10:37Z,42.805,6.029,13.2952,4.59961,2469.526,2019-5-24T16:10:51Z
2019-05-24T14:13:40Z,42.805,6.029,13.2950,4.59962,2469.503,2019-5-24T16:13:54Z
2019-05-24T14:16:43Z,42.805,6.029,13.2952,4.59958,2469.55,2019-5-24T16:16:57Z
2019-05-24T14:19:46Z,42.805,6.029,13.2953,4.59958,2469.55,2019-5-24T16:20:00Z
2019-05-24T14:22:48Z,42.805,6.029,13.2951,4.59956,2469.54,2019-5-24T16:23:03Z
2019-05-24T14:25:51Z,42.805,6.029,13.2950,4.59956,2469.573,2019-5-24T16:26:06Z
2019-05-24T14:28:54Z,42.805,6.029,13.2951,4.59900,2469.54,2019-5-24T16:29:09Z
2019-05-24T14:31:57Z,42.805,6.029,13.2958,4.59958,2469.517,2019-5-24T16:32:12Z
2019-05-24T14:35:00Z,42.805,6.029,13.2953,4.59958,2469.54,2019-5-24T16:35:15Z
2019-05-24T14:38:03Z,42.805,6.029,13.2953,4.59958,2469.55,2019-5-24T16:38:18Z
2019-05-24T14:41:06Z,42.805,6.029,13.2953,4.59956,2469.54,2019-5-24T16:41:21Z
2019-05-24T14:44:09Z,42.805,6.029,13.2952,4.59960,2469.54,2019-5-24T16:44:24Z
2019-05-24T14:47:12Z,42.805,6.029,13.2953,4.59955,2469.55,2019-5-24T16:47:27Z
2019-05-24T14:50:15Z,42.805,6.029,13.2953,4.59956,2469.55,2019-5-24T16:50:29Z
2019-05-24T14:53:18Z,42.805,6.029,13.2953,4.59954,2469.526,2019-5-24T16:53:32Z
2019-05-24T14:56:21Z,42.805,6.029,13.2953,4.59957,2469.517,2019-5-24T16:56:35Z
2019-05-24T14:59:24Z,42.805,6.029,13.2952,4.59958,2469.526,2019-5-24T16:59:38Z
2019-05-24T15:02:27Z,42.805,6.029,13.2947,4.59954,2469.563,2019-5-24T17:02:41Z
2019-05-24T15:05:30Z,42.805,6.029,13.2952,4.59956,2469.517,2019-5-24T17:05:44Z
2019-05-24T15:08:33Z,42.805,6.029,13.2949,4.59952,2469.503,2019-5-24T17:08:47Z
2019-05-24T15:11:36Z,42.805,6.029,13.2952,4.59954,2469.526,2019-5-24T17:11:50Z
2019-05-24T15:14:39Z,42.805,6.029,13.2954,4.59953,2469.503,2019-5-24T17:14:53Z